Weather History for Apalachicola, FL

Change the Weather History Date:

Friday, February 10, 2012

  Actual Average Record
Temperature  
Mean Temperature 52 °F 55 °F  
Max Temperature 62 °F 65 °F 80 °F (1957)
Min Temperature 41 °F 44 °F 27 °F (1971)
Degree Days  
Heating Degree Days 13    
Month to date heating degree days 40  
Since 1 July heating degree days 675  
Cooling Degree Days 0    
Month to date cooling degree days 8  
Year to date cooling degree days 23  
Growing Degree Days 2 (Base 50)    
Moisture  
Dew Point 43 °F    
Average Humidity 69    
Maximum Humidity 89    
Minimum Humidity 49    
Precipitation  
Precipitation 0.02 in 0.15 in 2.92 in (1942)
Month to date precipitation 0.27 1.44  
Year to date precipitation 2.99 5.84  
Sea Level Pressure  
Sea Level Pressure 30.08 in    
Wind  
Wind Speed 3 mph (NNE)    
Max Wind Speed 9 mph    
Max Gust Speed 12 mph    
Visibility 8 miles    
Events Rain    
T = Trace of Precipitation, MM = Missing Value Source: NWS Daily Summary

Daily Weather History Graph

Daily Weather History Graph

Search for Another Location

Airport:

Trip Planner

Search our weather history database for the weather conditions in past years. The results will help you decide how hot, cold, wet, or windy it might be!

Date:

Astronomy

Feb. 10, 2012 Rise Set
Actual Time 7:24 AM EST 6:24 PM EST
Civil Twilight 6:59 AM EST 6:49 PM EST
Nautical Twilight 6:31 AM EST 7:17 PM EST
Astronomical Twilight 6:03 AM EST 7:45 PM EST
Moon 9:39 PM EST (2/10) 8:51 AM EST (2/10)
Length of Visible Light 11h 49m
Length of Day
11h 00m
Waning Gibbous, 90% of the Moon is Illuminated
Feb 10
Waning Gibbous
Feb 14
Last Quarter
Feb 21
New
Feb 29
First Quarter
Mar 8
Full

Hourly Weather History & Observations

Time (EST) Temp. Windchill Dew Point Humidity Pressure Visibility Wind Dir Wind Speed Gust Speed Precip Events Conditions
12:53 AM 44.1 °F - 39.9 °F 85% 30.16 in 7.0 mi Calm Calm - N/A   Clear
1:53 AM 46.9 °F - 37.9 °F 71% 30.15 in 6.0 mi NNE 3.5 mph - N/A   Haze
2:53 AM 45.0 °F - 37.9 °F 76% 30.13 in 5.0 mi Calm Calm - N/A   Haze
3:53 AM 42.1 °F 40.2 °F 39.0 °F 89% 30.14 in 5.0 mi North 3.5 mph - N/A   Clear
4:53 AM 46.9 °F - 39.0 °F 74% 30.14 in 6.0 mi North 3.5 mph - N/A   Haze
5:53 AM 46.9 °F - 39.0 °F 74% 30.13 in 5.0 mi Calm Calm - N/A   Haze
6:53 AM 46.9 °F - 37.9 °F 71% 30.14 in 6.0 mi North 4.6 mph - N/A   Haze
7:53 AM 48.9 °F - 37.9 °F 66% 30.14 in 5.0 mi Calm Calm - N/A   Haze
8:53 AM 51.1 °F - 37.9 °F 61% 30.14 in 5.0 mi NE 4.6 mph - N/A   Haze
9:53 AM 55.0 °F - 39.0 °F 55% 30.14 in 7.0 mi NE 6.9 mph - N/A   Mostly Cloudy
10:53 AM 60.1 °F - 41.0 °F 49% 30.13 in 8.0 mi East 4.6 mph - N/A   Scattered Clouds
11:53 AM 60.1 °F - 48.0 °F 64% 30.11 in 9.0 mi SE 4.6 mph - N/A   Mostly Cloudy
12:53 PM 61.0 °F - 48.0 °F 62% 30.09 in 10.0 mi South 6.9 mph - N/A   Clear
1:53 PM 60.1 °F - 48.9 °F 67% 30.07 in 9.0 mi SW 5.8 mph - 0.00 in   Mostly Cloudy
2:53 PM 61.0 °F - 45.0 °F 56% 30.02 in 10.0 mi Calm Calm - N/A   Partly Cloudy
3:53 PM 61.0 °F - 43.0 °F 52% 30.00 in 10.0 mi NW 8.1 mph - N/A   Mostly Cloudy
4:53 PM 59.0 °F - 42.1 °F 53% 29.99 in 10.0 mi NW 5.8 mph - N/A   Clear
5:53 PM 57.0 °F - 45.0 °F 64% 29.99 in 10.0 mi Calm Calm - N/A   Partly Cloudy
6:53 PM 55.4 °F - 48.2 °F 77% 29.98 in 10.0 mi Calm Calm - N/A Rain Light Rain
7:53 PM 53.1 °F - 48.9 °F 86% 30.00 in 9.0 mi North 4.6 mph - 0.00 in Rain Light Rain
8:53 PM 53.1 °F - 48.0 °F 83% 30.06 in 10.0 mi NW 5.8 mph - 0.00 in Rain Light Rain
9:53 PM 52.0 °F - 48.0 °F 86% 30.07 in 7.0 mi NNW 3.5 mph - 0.01 in Rain Light Rain
10:53 PM 52.0 °F - 46.9 °F 83% 30.04 in 8.0 mi Calm Calm - 0.01 in   Overcast
11:53 PM 51.1 °F - 48.0 °F 89% 29.99 in 7.0 mi ESE 3.5 mph - 0.00 in Rain Light Rain